DW4078 Weather Reports


Display with metric or nautical units.
time (UTC)temp
F
wind
direction
speed
MPH
gust
MPH
rain 1hr
in
rain 24hr
in
rain mn
in
humidity
%
barometer
mb
20260507184102 53 12 4.0 10.0 0.00 0.00 0.00 50 1012.3
20260507183902 53 8 4.0 10.0 0.00 0.00 0.00 51 1012.3
20260507183702 53 3 4.0 10.0 0.00 0.00 0.00 51 1012.3
20260507183602 53 357 4.0 10.0 0.00 0.00 0.00 51 1012.3
20260507182902 54 26 4.0 9.0 0.00 0.00 0.00 51 1012.0
20260507182602 54 35 3.0 8.0 0.00 0.00 0.00 48 1012.0
20260507182523 54 50 3.0 8.0 0.00 0.00 0.00 49 1012.3
20260507182402 54 52 3.0 9.0 0.00 0.00 0.00 49 1012.3
20260507182102 54 21 3.0 9.0 0.00 0.00 0.00 49 1012.3
20260507181802 53 31 3.0 9.0 0.00 0.00 0.00 50 1012.3
20260507181623 53 29 3.0 9.0 0.00 0.00 0.00 51 1012.3
20260507181502 53 17 4.0 9.0 0.00 0.00 0.00 49 1012.3
20260507181202 53 10 4.0 10.0 0.00 0.00 0.00 49 1012.2
20260507181102 53 16 4.0 10.0 0.00 0.00 0.00 52 1012.3
20260507180702 53 1 5.0 10.0 0.00 0.00 0.00 51 1012.2
20260507180623 53 354 5.0 10.0 0.00 0.00 0.00 49 1012.3
20260507180402 53 344 5.0 10.0 0.00 0.00 0.00 50 1012.2
20260507180302 54 348 5.0 10.0 0.00 0.00 0.00 50 1012.2
20260507175802 55 310 5.0 11.0 0.00 0.00 0.00 52 1012.2
20260507175502 55 323 5.0 11.0 0.00 0.00 0.00 52 1012.4
20260507175306 55 314 5.0 11.0 0.00 0.00 0.00 50 1012.5
20260507175123 55 338 4.0 10.0 0.00 0.00 0.00 52 1012.2
20260507175002 56 343 4.0 10.0 0.00 0.00 0.00 52 1012.2
20260507174902 56 354 4.0 10.0 0.00 0.00 0.00 49 1012.4
20260507174702 56 9 4.0 10.0 0.00 0.00 0.00 50 1012.2
20260507174623 55 8 4.0 8.0 0.00 0.00 0.00 53 1012.2
20260507174402 54 24 4.0 8.0 0.00 0.00 0.00 52 1012.3
20260507174302 54 26 4.0 10.0 0.00 0.00 0.00 50 1012.3
20260507174123 54 33 4.0 10.0 0.00 0.00 0.00 50 1012.2
20260507173502 55 16 4.0 11.0 0.00 0.00 0.00 52 1012.3
20260507173423 55 3 4.0 11.0 0.00 0.00 0.00 50 1012.3
20260507173002 54 336 4.0 9.0 0.00 0.00 0.00 52 1012.5
20260507172902 54 320 4.0 9.0 0.00 0.00 0.00 53 1012.3
20260507172602 54 301 5.0 10.0 0.00 0.00 0.00 52 1012.5
20260507172523 54 299 5.0 10.0 0.00 0.00 0.00 52 1012.4
20260507172323 54 305 5.0 10.0 0.00 0.00 0.00 54 1012.3
20260507172202 55 296 4.0 10.0 0.00 0.00 0.00 53 1012.4
20260507172123 55 296 4.0 10.0 0.00 0.00 0.00 51 1012.4
20260507172002 55 286 4.0 10.0 0.00 0.00 0.00 53 1012.4
20260507171902 54 286 4.0 10.0 0.00 0.00 0.00 58 1012.3
20260507171802 54 294 4.0 10.0 0.00 0.00 0.00 54 1012.3
20260507171702 54 295 3.0 10.0 0.00 0.00 0.00 53 1012.2
20260507171623 54 307 3.0 10.0 0.00 0.00 0.00 54 1012.3
20260507171502 54 297 3.0 7.0 0.00 0.00 0.00 54 1012.4
20260507171423 54 294 3.0 7.0 0.00 0.00 0.00 55 1012.5
20260507171202 54 329 3.0 7.0 0.00 0.00 0.00 56 1012.4
20260507171102 54 339 3.0 7.0 0.00 0.00 0.00 56 1012.4
20260507170902 53 3 3.0 9.0 0.00 0.00 0.00 58 1012.5
20260507170802 53 345 4.0 11.0 0.00 0.00 0.00 58 1012.5
20260507170602 54 347 4.0 11.0 0.00 0.00 0.00 56 1012.3
20260507170502 54 358 4.0 11.0 0.00 0.00 0.00 57 1012.5
20260507170402 53 349 4.0 11.0 0.00 0.00 0.00 58 1012.6
20260507170002 54 340 5.0 11.0 0.00 0.00 0.00 55 1012.4
20260507165402 56 307 4.0 11.0 0.00 0.00 0.00 54 1012.3
20260507165102 56 276 5.0 11.0 0.00 0.00 0.00 54 1012.3
20260507164902 54 270 5.0 11.0 0.00 0.00 0.00 56 1012.4
20260507164602 54 290 5.0 11.0 0.00 0.00 0.00 56 1012.4
20260507164423 54 302 5.0 11.0 0.00 0.00 0.00 55 1012.4
20260507164202 54 343 4.0 9.0 0.00 0.00 0.00 56 1012.4
20260507164102 54 7 4.0 8.0 0.00 0.00 0.00 56 1012.6
20260507164002 53 19 4.0 8.0 0.00 0.00 0.00 58 1012.6
20260507163602 54 334 4.0 10.0 0.00 0.00 0.00 57 1012.4
20260507163102 54 334 4.0 10.0 0.00 0.00 0.00 58 1012.7
20260507162902 54 316 4.0 10.0 0.00 0.00 0.00 56 1012.6
20260507162502 55 333 4.0 10.0 0.00 0.00 0.00 56 1012.2
20260507162402 54 343 4.0 10.0 0.00 0.00 0.00 57 1012.2
20260507162306 54 334 4.0 10.0 0.00 0.00 0.00 56 1012.4
20260507162102 53 306 5.0 11.0 0.00 0.00 0.00 55 1012.3
20260507161702 54 294 5.0 11.0 0.00 0.00 0.00 54 1012.3
20260507161602 54 286 5.0 11.0 0.00 0.00 0.00 53 1012.3
20260507161502 54 279 6.0 11.0 0.00 0.00 0.00 53 1012.3
20260507161102 54 284 5.0 11.0 0.00 0.00 0.00 53 1012.2
20260507160902 55 283 5.0 11.0 0.00 0.00 0.00 52 1012.3
20260507160802 56 291 5.0 11.0 0.00 0.00 0.00 50 1012.3
20260507160602 57 319 4.0 10.0 0.00 0.00 0.00 43 1012.4
20260507160002 56 331 3.0 8.0 0.00 0.00 0.00 45 1012.3
20260507155703 55 248 2.0 8.0 0.00 0.00 0.00 44 1012.3
20260507155602 55 70 2.0 8.0 0.00 0.00 0.00 46 1012.5
20260507155402 55 135 2.0 8.0 0.00 0.00 0.00 46 1012.4
20260507155102 56 334 2.0 4.0 0.00 0.00 0.00 45 1012.2
20260507154802 57 282 2.0 8.0 0.00 0.00 0.00 44 1012.3
20260507154402 56 271 4.0 9.0 0.00 0.00 0.00 43 1012.3
20260507154102 55 242 3.0 9.0 0.00 0.00 0.00 45 1012.5
20260507154002 55 230 3.0 9.0 0.00 0.00 0.00 46 1012.5
20260507153602 56 233 3.0 10.0 0.00 0.00 0.00 44 1012.4
20260507153502 56 232 3.0 10.0 0.00 0.00 0.00 45 1012.6
20260507153102 55 229 4.0 10.0 0.00 0.00 0.00 48 1012.5
20260507153002 55 231 4.0 10.0 0.00 0.00 0.00 47 1012.5
20260507152902 55 228 3.0 10.0 0.00 0.00 0.00 45 1012.6
20260507152602 56 211 3.0 10.0 0.00 0.00 0.00 44 1012.5
20260507152502 56 209 3.0 10.0 0.00 0.00 0.00 45 1012.4
20260507152402 56 209 3.0 10.0 0.00 0.00 0.00 44 1012.6
20260507152102 56 210 3.0 8.0 0.00 0.00 0.00 43 1012.6
20260507152002 56 194 2.0 8.0 0.00 0.00 0.00 44 1012.6
20260507151602 57 223 3.0 8.0 0.00 0.00 0.00 44 1012.6
20260507151502 57 236 3.0 8.0 0.00 0.00 0.00 42 1012.7
20260507151223 55 266 3.0 8.0 0.00 0.00 0.00 44 1012.5
20260507151102 54 274 3.0 8.0 0.00 0.00 0.00 45 1012.7
20260507150602 54 304 2.0 7.0 0.00 0.00 0.00 46 1012.5
20260507150302 55 301 2.0 7.0 0.00 0.00 0.00 46 1012.6
20260507145902 56 293 2.0 7.0 0.00 0.00 0.00 44 1012.6
20260507145402 54 265 3.0 8.0 0.00 0.00 0.00 45 1012.7
20260507145202 55 246 3.0 8.0 0.00 0.00 0.00 44 1012.6
20260507145102 55 225 3.0 8.0 0.00 0.00 0.00 46 1012.9
20260507144902 55 232 3.0 8.0 0.00 0.00 0.00 47 1012.7
20260507144402 54 237 1.0 6.0 0.00 0.00 0.00 47 1012.6
20260507144323 54 34 1.0 4.0 0.00 0.00 0.00 51 1012.6
20260507144202 54 90 1.0 4.0 0.00 0.00 0.00 49 1012.5
20260507144123 54 74 1.0 4.0 0.00 0.00 0.00 49 1012.7
20260507143602 52 82 2.0 6.0 0.00 0.00 0.00 52 1012.7
20260507143402 53 71 2.0 6.0 0.00 0.00 0.00 51 1012.5
20260507143202 53 72 2.0 6.0 0.00 0.00 0.00 52 1012.7
20260507143002 53 42 2.0 6.0 0.00 0.00 0.00 56 1012.7
20260507142902 53 38 2.0 6.0 0.00 0.00 0.00 53 1012.6
20260507142802 53 53 2.0 6.0 0.00 0.00 0.00 58 1012.5
20260507142602 53 56 2.0 6.0 0.00 0.00 0.00 58 1012.6
20260507142423 53 55 2.0 6.0 0.00 0.00 0.00 58 1012.6
20260507142306 53 48 2.0 6.0 0.00 0.00 0.00 57 1012.7
20260507142202 53 47 2.0 6.0 0.00 0.00 0.00 57 1012.8
20260507142102 53 66 2.0 6.0 0.00 0.00 0.00 55 1012.8
20260507142023 53 103 2.0 6.0 0.00 0.00 0.00 56 1012.8
20260507141902 53 177 2.0 6.0 0.00 0.00 0.00 57 1012.8
20260507141802 53 209 2.0 6.0 0.00 0.00 0.00 57 1012.7
20260507141702 53 228 2.0 6.0 0.00 0.00 0.00 58 1012.8
20260507141602 53 235 2.0 6.0 0.00 0.00 0.00 58 1012.8
20260507141302 53 223 2.0 6.0 0.00 0.00 0.00 59 1012.7
20260507141102 52 225 2.0 6.0 0.00 0.00 0.00 57 1012.9
20260507141002 52 258 2.0 6.0 0.00 0.00 0.00 57 1013.0
20260507140902 52 337 2.0 6.0 0.00 0.00 0.00 57 1012.9
20260507140623 52 60 2.0 7.0 0.00 0.00 0.00 59 1013.0
20260507140523 52 51 2.0 7.0 0.00 0.00 0.00 60 1012.9
20260507140403 52 1 2.0 7.0 0.00 0.00 0.00 60 1012.9
20260507140302 52 335 3.0 7.0 0.00 0.00 0.00 60 1012.8
20260507135802 51 294 3.0 7.0 0.00 0.00 0.00 61 1013.1
20260507135603 51 311 2.0 6.0 0.00 0.00 0.00 59 1013.0
20260507135502 51 328 2.0 6.0 0.00 0.00 0.00 61 1013.0
20260507135423 52 344 2.0 6.0 0.00 0.00 0.00 62 1013.1
20260507134902 52 19 2.0 6.0 0.00 0.00 0.00 61 1013.1
20260507134802 52 172 2.0 6.0 0.00 0.00 0.00 62 1013.2
20260507134602 52 183 2.0 6.0 0.00 0.00 0.00 62 1013.0
20260507133802 53 141 1.0 4.0 0.00 0.00 0.00 61 1013.2
20260507133702 53 136 1.0 4.0 0.00 0.00 0.00 61 1013.1
20260507133623 53 135 1.0 4.0 0.00 0.00 0.00 61 1013.2
20260507133523 53 129 1.0 3.0 0.00 0.00 0.00 61 1013.1
20260507133102 52 99 1.0 3.0 0.00 0.00 0.00 63 1013.4
20260507133002 52 87 1.0 3.0 0.00 0.00 0.00 63 1013.4
20260507132902 51 64 1.0 4.0 0.00 0.00 0.00 63 1013.3
20260507132802 50 56 1.0 4.0 0.00 0.00 0.00 66 1013.5
20260507132202 49 55 1.0 4.0 0.00 0.00 0.00 67 1013.3
20260507132102 49 54 1.0 4.0 0.00 0.00 0.00 67 1013.2
20260507132002 50 53 1.0 4.0 0.00 0.00 0.00 66 1013.3
20260507131902 49 72 1.0 4.0 0.00 0.00 0.00 67 1013.2
20260507131802 49 81 1.0 4.0 0.00 0.00 0.00 67 1013.4
20260507131302 50 127 1.0 3.0 0.00 0.00 0.00 67 1013.3
20260507131102 50 115 1.0 2.0 0.00 0.00 0.00 67 1013.4
20260507130902 49 121 1.0 2.0 0.00 0.00 0.00 66 1013.2
20260507130602 49 122 1.0 3.0 0.00 0.00 0.00 67 1013.5
20260507130402 49 108 1.0 3.0 0.00 0.00 0.00 71 1013.4
20260507130123 49 94 1.0 3.0 0.00 0.00 0.00 70 1013.4
20260507125923 49 97 1.0 3.0 0.00 0.00 0.00 70 1013.4
20260507125602 49 95 1.0 2.0 0.00 0.00 0.00 71 1013.3
20260507125402 49 95 1.0 2.0 0.00 0.00 0.00 72 1013.3
20260507125102 49 100 1.0 3.0 0.00 0.00 0.00 71 1013.3
20260507124902 48 103 1.0 3.0 0.00 0.00 0.00 72 1013.2
20260507124602 48 116 2.0 6.0 0.00 0.00 0.00 72 1013.5
20260507124402 48 109 2.0 6.0 0.00 0.00 0.00 73 1013.2
20260507124302 48 107 2.0 6.0 0.00 0.00 0.00 73 1013.4
20260507124102 48 111 2.0 6.0 0.00 0.00 0.00 74 1013.4
20260507124002 48 110 2.0 6.0 0.00 0.00 0.00 73 1013.5
20260507123902 48 102 2.0 6.0 0.00 0.00 0.00 72 1013.4
20260507123702 48 97 1.0 4.0 0.00 0.00 0.00 72 1013.3
20260507123602 48 123 1.0 3.0 0.00 0.00 0.00 73 1013.4
20260507123423 48 143 1.0 3.0 0.00 0.00 0.00 73 1013.4
20260507123302 48 144 1.0 3.0 0.00 0.00 0.00 73 1013.3
20260507123223 48 142 1.0 3.0 0.00 0.00 0.00 73 1013.3
20260507123102 48 143 1.0 3.0 0.00 0.00 0.00 73 1013.4
20260507122902 48 150 1.0 3.0 0.00 0.00 0.00 71 1013.3
20260507122702 48 144 1.0 3.0 0.00 0.00 0.00 72 1013.2
20260507122602 48 142 1.0 3.0 0.00 0.00 0.00 72 1013.0
20260507122502 48 139 1.0 3.0 0.00 0.00 0.00 72 1013.2
20260507122423 48 135 1.0 3.0 0.00 0.00 0.00 72 1013.1
20260507122102 48 146 1.0 3.0 0.00 0.00 0.00 73 1013.1
20260507121302 47 144 1.0 3.0 0.00 0.00 0.00 74 1013.1
20260507121202 47 137 1.0 3.0 0.00 0.00 0.00 74 1013.1
20260507121123 47 134 1.0 3.0 0.00 0.00 0.00 75 1013.1
20260507121002 47 133 1.0 3.0 0.00 0.00 0.00 75 1013.2
20260507120602 46 128 1.0 2.0 0.00 0.00 0.00 76 1013.1
20260507115902 45 132 1.0 3.0 0.00 0.00 0.00 77 1013.1
20260507115802 45 131 2.0 3.0 0.00 0.00 0.00 77 1013.1
20260507115602 45 132 2.0 3.0 0.00 0.00 0.00 77 1013.2
20260507115502 45 132 2.0 3.0 0.00 0.00 0.00 77 1013.0
20260507115306 44 130 1.0 3.0 0.00 0.00 0.00 78 1013.1
20260507115202 44 130 2.0 3.0 0.00 0.00 0.00 78 1013.1
20260507115102 44 128 2.0 3.0 0.00 0.00 0.00 79 1012.9
20260507114902 44 129 1.0 3.0 0.00 0.00 0.00 79 1013.0
20260507114823 44 128 1.0 3.0 0.00 0.00 0.00 79 1013.1
20260507114623 44 126 1.0 3.0 0.00 0.00 0.00 80 1013.1
20260507114502 44 123 1.0 3.0 0.00 0.00 0.00 80 1013.1
20260507114402 43 123 1.0 3.0 0.00 0.00 0.00 80 1013.1
20260507114302 43 123 1.0 3.0 0.00 0.00 0.00 81 1013.2
20260507114202 43 123 1.0 2.0 0.00 0.00 0.00 81 1013.0
20260507114123 43 124 1.0 2.0 0.00 0.00 0.00 82 1013.0
20260507114002 43 123 1.0 2.0 0.00 0.00 0.00 82 1013.1
20260507113702 43 121 1.0 2.0 0.00 0.00 0.00 82 1013.1
20260507113302 42 118 1.0 2.0 0.00 0.00 0.00 84 1013.3
20260507113102 42 113 0.0 2.0 0.00 0.00 0.00 85 1013.1
20260507112602 41 109 0.0 2.0 0.00 0.00 0.00 87 1013.0
20260507112523 41 110 0.0 2.0 0.00 0.00 0.00 87 1013.1
20260507112402 41 112 0.0 2.0 0.00 0.00 0.00 87 1013.0
20260507112102 41 114 0.0 2.0 0.00 0.00 0.00 88 1012.9
20260507111823 41 113 0.0 2.0 0.00 0.00 0.00 88 1013.1
20260507111603 40 119 0.0 2.0 0.00 0.00 0.00 88 1013.1
20260507111503 40 119 0.0 1.0 0.00 0.00 0.00 89 1013.0
20260507111402 40 118 0.0 1.0 0.00 0.00 0.00 89 1013.0
20260507111302 40 118 0.0 1.0 0.00 0.00 0.00 89 1013.0
20260507111002 40 118 0.0 1.0 0.00 0.00 0.00 89 1013.1
20260507110702 40 114 0.0 1.0 0.00 0.00 0.00 89 1013.0
20260507110602 40 112 0.0 1.0 0.00 0.00 0.00 89 1012.9
20260507110502 40 111 0.0 1.0 0.00 0.00 0.00 89 1012.9
20260507110402 40 112 0.0 1.0 0.00 0.00 0.00 89 1013.1
20260507110302 40 112 0.0 1.0 0.00 0.00 0.00 89 1013.1
20260507110003 40 111 0.0 1.0 0.00 0.00 0.00 89 1013.0
20260507105923 40 111 0.0 1.0 0.00 0.00 0.00 89 1013.0
20260507105602 40 114 0.0 1.0 0.00 0.00 0.00 89 1013.0
20260507105502 40 113 0.0 1.0 0.00 0.00 0.00 89 1012.8
20260507105402 40 112 0.0 1.0 0.00 0.00 0.00 89 1012.9
20260507105306 40 112 0.0 1.0 0.00 0.00 0.00 89 1012.8
20260507105102 40 110 0.0 1.0 0.00 0.00 0.00 89 1013.1
20260507104723 40 108 0.0 1.0 0.00 0.00 0.00 89 1012.8
20260507104402 40 105 0.0 1.0 0.00 0.00 0.00 90 1012.7
20260507104302 40 105 0.0 1.0 0.00 0.00 0.00 90 1012.9
20260507104023 40 105 0.0 1.0 0.00 0.00 0.00 90 1012.6
20260507103402 40 107 0.0 1.0 0.00 0.00 0.00 90 1012.8
20260507103102 40 112 0.0 1.0 0.00 0.00 0.00 90 1013.0
20260507102802 40 113 0.0 1.0 0.00 0.00 0.00 90 1012.9
20260507102702 40 113 0.0 1.0 0.00 0.00 0.00 90 1012.7
20260507102602 40 114 0.0 1.0 0.00 0.00 0.00 90 1012.6
20260507102502 40 117 0.0 1.0 0.00 0.00 0.00 90 1012.8
20260507102402 40 117 0.0 1.0 0.00 0.00 0.00 90 1012.6
20260507102223 40 117 0.0 1.0 0.00 0.00 0.00 90 1012.9
20260507102102 40 113 0.0 1.0 0.00 0.00 0.00 90 1012.7
20260507101802 40 0 0.0 0.0 0.00 0.00 0.00 89 1012.7
20260507101502 40 0 0.0 0.0 0.00 0.00 0.00 89 1012.7
20260507100502 41 0 0.0 0.0 0.00 0.00 0.00 87 1012.7
20260507100402 41 0 0.0 0.0 0.00 0.00 0.00 87 1012.6
20260507095902 41 0 0.0 0.0 0.00 0.00 0.00 86 1012.6
20260507095802 41 0 0.0 0.0 0.00 0.00 0.00 86 1012.6
20260507095623 41 0 0.0 0.0 0.00 0.00 0.00 86 1012.7
20260507095402 41 111 0.0 1.0 0.00 0.00 0.00 86 1012.7
20260507095305 41 113 0.0 1.0 0.00 0.00 0.00 86 1012.6
20260507095102 41 114 0.0 1.0 0.00 0.00 0.00 86 1012.6
20260507094602 41 117 0.0 2.0 0.00 0.00 0.00 85 1012.8
20260507094502 41 118 0.0 2.0 0.00 0.00 0.00 85 1012.7
20260507094402 41 119 0.0 2.0 0.00 0.00 0.00 85 1012.7
20260507094002 41 119 0.0 2.0 0.00 0.01 0.00 85 1012.8
20260507093902 41 119 0.0 2.0 0.00 0.01 0.00 85 1012.9
20260507093602 41 115 1.0 3.0 0.00 0.01 0.00 85 1012.6
20260507093502 41 117 1.0 3.0 0.00 0.01 0.00 85 1012.5
20260507093202 41 115 1.0 3.0 0.00 0.01 0.00 85 1012.6
20260507093102 41 118 1.0 3.0 0.00 0.02 0.00 85 1012.5
20260507092802 41 120 1.0 3.0 0.00 0.02 0.00 85 1012.7
20260507092602 41 120 1.0 3.0 0.00 0.02 0.00 86 1012.6
20260507092423 41 120 1.0 3.0 0.00 0.03 0.00 86 1012.6
20260507092102 41 119 1.0 3.0 0.00 0.03 0.00 86 1012.7
20260507092005 41 118 1.0 3.0 0.00 0.04 0.00 86 1012.6
20260507091902 41 117 1.0 3.0 0.00 0.04 0.00 86 1012.6
20260507091802 41 114 1.0 3.0 0.00 0.04 0.00 86 1012.9
20260507091602 41 114 1.0 3.0 0.00 0.04 0.00 86 1012.7
20260507091423 41 113 1.0 2.0 0.00 0.04 0.00 86 1012.7
20260507091123 41 120 1.0 3.0 0.00 0.05 0.00 86 1012.7
20260507091002 41 118 1.0 3.0 0.00 0.05 0.00 86 1012.7
20260507090802 41 122 1.0 3.0 0.00 0.05 0.00 86 1012.7
20260507090602 41 125 1.0 3.0 0.00 0.05 0.00 86 1012.6
20260507090402 41 123 1.0 3.0 0.00 0.05 0.00 86 1012.8
20260507090302 41 121 1.0 3.0 0.00 0.05 0.00 86 1012.7
20260507090223 41 121 1.0 3.0 0.00 0.05 0.00 86 1012.9
20260507085602 41 120 1.0 3.0 0.00 0.06 0.00 87 1013.0
20260507085402 41 122 1.0 3.0 0.00 0.06 0.00 87 1012.9
20260507085202 41 121 1.0 3.0 0.00 0.06 0.00 87 1013.0
20260507085102 41 121 1.0 3.0 0.00 0.06 0.00 87 1012.8
20260507084902 41 122 1.0 3.0 0.00 0.06 0.00 87 1012.9
20260507084702 41 122 1.0 3.0 0.00 0.06 0.00 87 1012.9
20260507084202 41 0 0.0 0.0 0.00 0.06 0.00 88 1012.8
20260507084102 41 0 0.0 0.0 0.00 0.06 0.00 88 1013.1
20260507083902 41 0 0.0 0.0 0.00 0.06 0.00 88 1012.8
20260507083402 40 103 0.0 2.0 0.00 0.06 0.00 89 1013.1
20260507083302 40 104 0.0 2.0 0.00 0.06 0.00 89 1013.0
20260507083002 40 108 1.0 2.0 0.00 0.06 0.00 90 1013.0
20260507082904 40 108 1.0 2.0 0.00 0.07 0.00 90 1013.1
20260507082602 40 108 0.0 2.0 0.00 0.07 0.00 90 1013.0
20260507082502 40 111 0.0 2.0 0.00 0.07 0.00 90 1013.0
20260507082423 40 111 0.0 2.0 0.00 0.07 0.00 90 1013.0
20260507082202 39 115 0.0 2.0 0.00 0.08 0.00 90 1012.9
20260507082102 39 119 0.0 2.0 0.00 0.08 0.00 90 1013.0
20260507081902 39 118 0.0 1.0 0.00 0.08 0.00 90 1013.0
20260507081602 39 111 0.0 2.0 0.00 0.09 0.00 89 1013.1
20260507081402 40 111 0.0 2.0 0.00 0.09 0.00 89 1013.0
20260507081002 40 114 1.0 3.0 0.00 0.10 0.00 90 1013.1
20260507080702 40 116 1.0 3.0 0.00 0.10 0.00 90 1013.0
20260507080602 40 117 1.0 3.0 0.00 0.11 0.00 90 1013.1
20260507080502 40 117 1.0 3.0 0.00 0.11 0.00 90 1013.1
20260507080402 40 116 1.0 3.0 0.00 0.11 0.00 90 1013.2
20260507080323 40 118 1.0 3.0 0.00 0.11 0.00 90 1013.1
20260507075702 40 121 1.0 2.0 0.00 0.12 0.00 90 1013.0
20260507075402 40 120 0.0 2.0 0.00 0.12 0.00 91 1012.9
20260507075124 40 116 1.0 3.0 0.00 0.12 0.00 91 1013.0
20260507074902 40 115 1.0 3.0 0.00 0.12 0.00 90 1013.0
20260507074802 40 110 0.0 3.0 0.00 0.13 0.00 90 1013.0
20260507074602 40 111 0.0 3.0 0.00 0.13 0.00 90 1012.9
20260507074402 40 112 0.0 3.0 0.00 0.13 0.00 91 1012.9
20260507074202 39 115 0.0 2.0 0.00 0.13 0.00 91 1013.1
20260507074123 39 114 0.0 2.0 0.00 0.13 0.00 91 1012.9
20260507074023 39 115 0.0 2.0 0.00 0.13 0.00 91 1012.9
20260507073902 39 116 0.0 2.0 0.00 0.14 0.00 91 1013.0
20260507073724 39 116 0.0 2.0 0.00 0.14 0.00 90 1012.9
20260507073602 40 120 0.0 2.0 0.00 0.14 0.00 90 1013.1
20260507072802 39 124 0.0 2.0 0.00 0.15 0.00 91 1013.1
20260507072702 39 139 0.0 1.0 0.00 0.15 0.00 91 1013.0
20260507072602 39 0 0.0 0.0 0.00 0.15 0.00 91 1012.9
20260507072323 39 0 0.0 0.0 0.00 0.15 0.00 91 1013.0
20260507072202 39 0 0.0 0.0 0.00 0.15 0.00 91 1013.0
20260507072102 39 0 0.0 0.0 0.00 0.16 0.00 91 1013.0
20260507072002 39 0 0.0 0.0 0.00 0.16 0.00 91 1013.0
20260507071903 39 0 0.0 0.0 0.00 0.16 0.00 91 1013.0
20260507071702 39 0 0.0 0.0 0.00 0.16 0.00 91 1013.1
20260507071602 39 0 0.0 0.0 0.00 0.16 0.00 91 1013.1
20260507071503 39 0 0.0 0.0 0.00 0.16 0.00 91 1013.2
20260507071402 39 0 0.0 0.0 0.00 0.17 0.00 91 1013.1
20260507071302 39 0 0.0 0.0 0.00 0.17 0.00 91 1013.0
20260507071223 39 0 0.0 0.0 0.00 0.17 0.00 91 1013.0
20260507071102 39 0 0.0 0.0 0.00 0.17 0.00 91 1013.2
20260507071002 39 0 0.0 0.0 0.00 0.17 0.00 91 1013.1
20260507070602 39 112 0.0 2.0 0.00 0.17 0.00 91 1012.9
20260507070402 39 112 0.0 2.0 0.00 0.17 0.00 91 1013.1
20260507070302 39 112 0.0 2.0 0.00 0.17 0.00 91 1013.1
20260507065823 39 109 0.0 2.0 0.00 0.18 0.00 91 1013.0
20260507065402 39 124 0.0 2.0 0.00 0.18 0.00 91 1013.4
20260507065202 39 130 0.0 2.0 0.00 0.18 0.00 91 1013.4
20260507065102 39 130 0.0 2.0 0.00 0.18 0.00 91 1013.3
20260507064923 39 130 0.0 2.0 0.00 0.18 0.00 91 1013.4
20260507064702 40 130 0.0 2.0 0.00 0.18 0.00 91 1013.2
20260507064623 40 130 0.0 2.0 0.00 0.18 0.00 91 1013.2
20260507064402 40 0 0.0 0.0 0.00 0.18 0.00 91 1013.2
20260507063802 39 0 0.0 0.0 0.00 0.18 0.00 90 1013.4
20260507063502 39 0 0.0 0.0 0.00 0.19 0.00 90 1013.3
20260507063402 39 0 0.0 0.0 0.00 0.19 0.00 90 1013.3
20260507063302 40 0 0.0 0.0 0.00 0.19 0.00 90 1013.3
20260507063102 40 0 0.0 0.0 0.00 0.19 0.00 90 1013.2
20260507062902 40 0 0.0 0.0 0.00 0.19 0.00 89 1013.5
20260507062802 40 0 0.0 0.0 0.00 0.19 0.00 89 1013.3
20260507062702 40 0 0.0 0.0 0.00 0.19 0.00 89 1013.4
20260507062603 40 0 0.0 0.0 0.00 0.19 0.00 89 1013.4
20260507062502 40 0 0.0 0.0 0.00 0.19 0.00 89 1013.5
20260507062402 40 0 0.0 0.0 0.00 0.19 0.00 89 1013.4
20260507062305 40 0 0.0 0.0 0.00 0.19 0.00 89 1013.3
20260507062102 40 0 0.0 0.0 0.00 0.19 0.00 88 1013.3
20260507061902 40 0 0.0 0.0 0.00 0.20 0.00 88 1013.5
20260507061523 40 0 0.0 0.0 0.00 0.20 0.00 88 1013.6
20260507061123 41 115 0.0 1.0 0.00 0.21 0.00 87 1013.6
20260507060902 41 115 0.0 1.0 0.00 0.21 0.00 87 1013.4
20260507060802 41 115 0.0 1.0 0.00 0.22 0.00 87 1013.4
20260507060702 41 116 0.0 1.0 0.00 0.22 0.00 87 1013.5
20260507060402 41 117 0.0 1.0 0.00 0.23 0.00 86 1013.5
20260507060302 41 116 0.0 1.0 0.00 0.23 0.00 86 1013.6
20260507060203 41 121 0.0 2.0 0.00 0.23 0.00 86 1013.5
20260507060002 41 127 0.0 2.0 0.00 0.23 0.00 86 1013.4
20260507055902 42 131 0.0 2.0 0.00 0.24 0.00 85 1013.6
20260507055702 42 130 0.0 2.0 0.00 0.24 0.00 85 1013.6
20260507055402 42 131 0.0 2.0 0.00 0.25 0.00 85 1013.6
20260507055305 42 127 0.0 2.0 0.00 0.25 0.00 85 1013.7
20260507054624 42 120 1.0 2.0 0.00 0.27 0.00 84 1013.7
20260507054402 42 117 1.0 2.0 0.00 0.27 0.00 83 1013.7
20260507054124 42 115 1.0 2.0 0.00 0.28 0.00 83 1013.6
20260507053903 42 115 1.0 2.0 0.00 0.28 0.00 83 1013.6
20260507053702 43 117 1.0 2.0 0.00 0.28 0.00 83 1013.7
20260507053623 43 116 1.0 2.0 0.00 0.28 0.00 82 1013.7
20260507053423 43 117 1.0 2.0 0.00 0.28 0.00 82 1013.6
20260507053302 43 118 1.0 2.0 0.00 0.29 0.00 83 1013.6
20260507053102 43 120 1.0 3.0 0.00 0.29 0.00 82 1013.6
20260507052802 43 118 1.0 3.0 0.00 0.29 0.00 82 1013.8
20260507052423 43 117 1.0 3.0 0.00 0.30 0.00 82 1013.7
20260507052324 43 117 1.0 3.0 0.00 0.30 0.00 82 1013.5
20260507052102 43 115 1.0 2.0 0.00 0.30 0.00 81 1013.8
20260507051902 43 119 1.0 2.0 0.00 0.30 0.00 81 1013.7
20260507051702 43 120 1.0 2.0 0.00 0.30 0.00 81 1013.7
20260507051602 43 120 1.0 2.0 0.00 0.30 0.00 81 1013.7
20260507051402 44 123 1.0 2.0 0.00 0.30 0.00 80 1013.8
20260507051302 44 124 1.0 2.0 0.00 0.30 0.00 80 1013.9
20260507051123 44 126 1.0 3.0 0.00 0.30 0.00 80 1013.8
20260507050802 44 124 0.0 3.0 0.00 0.31 0.00 80 1013.9
20260507050602 44 124 0.0 3.0 0.00 0.31 0.00 80 1013.9
20260507050323 44 121 1.0 3.0 0.00 0.31 0.00 80 1014.2
20260507050223 44 122 1.0 3.0 0.00 0.31 0.00 80 1014.0
20260507045902 44 118 1.0 3.0 0.00 0.31 0.00 79 1013.9
20260507045723 44 117 1.0 3.0 0.00 0.31 0.00 79 1013.9
20260507045602 44 118 1.0 3.0 0.00 0.31 0.00 79 1013.8
20260507045523 44 118 1.0 3.0 0.00 0.32 0.00 79 1013.9
20260507045423 44 117 1.0 3.0 0.00 0.32 0.00 79 1013.8
20260507045002 44 118 1.0 2.0 0.00 0.32 0.00 79 1014.0
20260507044802 44 116 1.0 2.0 0.00 0.32 0.00 79 1013.8
20260507044502 44 115 0.0 2.0 0.00 0.32 0.00 80 1013.9
20260507044302 44 114 0.0 2.0 0.00 0.32 0.00 80 1013.8
20260507044202 44 115 0.0 2.0 0.00 0.32 0.00 80 1013.8
20260507044102 44 115 0.0 2.0 0.00 0.33 0.00 80 1014.1
20260507044002 44 114 0.0 2.0 0.00 0.33 0.00 80 1014.0
20260507043802 44 116 0.0 1.0 0.00 0.33 0.00 80 1013.9
20260507043502 44 120 0.0 2.0 0.00 0.33 0.00 80 1014.1
20260507043123 44 122 0.0 3.0 0.00 0.34 0.00 81 1013.8
20260507043002 44 124 0.0 3.0 0.00 0.34 0.00 81 1013.8
20260507042902 44 123 1.0 3.0 0.00 0.34 0.00 81 1014.0
20260507042802 44 122 1.0 3.0 0.00 0.34 0.00 81 1013.9
20260507042703 44 122 1.0 3.0 0.00 0.34 0.00 81 1014.0
20260507042623 44 122 1.0 3.0 0.00 0.34 0.00 81 1014.0
20260507042423 44 120 1.0 3.0 0.00 0.34 0.00 81 1014.0
20260507042306 44 121 1.0 3.0 0.00 0.34 0.00 81 1014.1
20260507042102 44 116 0.0 2.0 0.00 0.34 0.00 82 1014.0
20260507042024 44 116 0.0 2.0 0.00 0.35 0.00 82 1014.0
20260507041802 44 115 0.0 2.0 0.00 0.35 0.00 83 1014.0
20260507041602 44 117 0.0 2.0 0.00 0.35 0.00 84 1014.0
20260507041502 44 119 0.0 2.0 0.00 0.35 0.00 84 1014.1
20260507041102 43 117 0.0 1.0 0.00 0.36 0.00 85 1014.1
20260507041002 43 117 0.0 1.0 0.00 0.36 0.00 85 1014.3
20260507040923 43 120 0.0 1.0 0.00 0.36 0.00 86 1014.2
20260507040802 43 0 0.0 0.0 0.00 0.37 0.00 86 1014.3
20260507040602 43 0 0.0 0.0 0.00 0.37 0.00 86 1014.1
20260507040524 43 0 0.0 0.0 0.00 0.37 0.00 86 1014.2
20260507035502 43 0 0.0 0.0 0.00 0.39 0.38 85 1014.3
20260507035423 43 0 0.0 0.0 0.00 0.39 0.38 85 1014.2
20260507035306 43 0 0.0 0.0 0.00 0.39 0.38 85 1014.2
20260507035102 43 111 0.0 2.0 0.00 0.39 0.38 84 1014.3
20260507035002 43 111 0.0 2.0 0.00 0.39 0.38 84 1014.2
20260507034902 43 111 0.0 2.0 0.00 0.39 0.38 84 1014.1
20260507034802 43 111 0.0 2.0 0.00 0.40 0.38 84 1014.3
20260507034602 43 111 0.0 2.0 0.00 0.40 0.38 84 1014.3
20260507034402 43 111 0.0 2.0 0.00 0.40 0.38 84 1014.4
20260507034303 43 111 0.0 2.0 0.00 0.40 0.38 84 1014.3
20260507033502 43 0 0.0 0.0 0.00 0.42 0.38 86 1014.4
20260507033303 43 0 0.0 0.0 0.00 0.42 0.38 86 1014.4
20260507033102 43 0 0.0 0.0 0.00 0.42 0.38 86 1014.5
20260507032902 43 0 0.0 0.0 0.00 0.42 0.38 86 1014.6
20260507032502 43 0 0.0 0.0 0.00 0.43 0.38 86 1014.4
20260507032202 43 0 0.0 0.0 0.00 0.43 0.38 86 1014.6
20260507032102 43 0 0.0 0.0 0.00 0.44 0.38 86 1014.4
20260507031802 43 0 0.0 0.0 0.00 0.44 0.38 86 1014.6
20260507031602 43 0 0.0 0.0 0.00 0.44 0.38 86 1014.4
20260507031202 43 0 0.0 0.0 0.00 0.45 0.38 85 1014.5
20260507031102 43 0 0.0 0.0 0.00 0.45 0.38 85 1014.6
20260507031002 43 0 0.0 0.0 0.00 0.45 0.38 85 1014.6
20260507030923 43 0 0.0 0.0 0.00 0.45 0.38 85 1014.5
20260507030802 43 0 0.0 0.0 0.00 0.45 0.38 84 1014.6
20260507030503 44 0 0.0 0.0 0.00 0.46 0.38 84 1014.6
20260507030302 44 0 0.0 0.0 0.00 0.47 0.38 83 1014.5
20260507030202 43 0 0.0 0.0 0.00 0.47 0.38 83 1014.7
20260507025924 44 0 0.0 0.0 0.00 0.47 0.38 82 1014.5
20260507025502 44 0 0.0 0.0 0.00 0.48 0.38 82 1014.4
20260507025402 44 0 0.0 0.0 0.00 0.49 0.38 82 1014.3
20260507025102 44 0 0.0 0.0 0.00 0.49 0.38 82 1014.3
20260507024902 44 0 0.0 0.0 0.00 0.50 0.38 82 1014.3
20260507024602 44 0 0.0 0.0 0.00 0.50 0.38 82 1014.4
20260507024502 44 0 0.0 0.0 0.00 0.51 0.38 82 1014.4
20260507024423 44 0 0.0 0.0 0.00 0.51 0.38 82 1014.1
20260507024102 45 0 0.0 0.0 0.00 0.52 0.38 81 1014.3
20260507023902 45 0 0.0 0.0 0.00 0.53 0.38 79 1014.0
20260507023802 45 0 0.0 0.0 0.00 0.53 0.38 79 1014.4
20260507023703 45 0 0.0 0.0 0.00 0.53 0.38 79 1014.2
20260507023602 45 0 0.0 0.0 0.00 0.53 0.38 79 1014.1
20260507023402 45 0 0.0 0.0 0.00 0.54 0.38 78 1014.2
20260507023302 45 0 0.0 0.0 0.00 0.54 0.38 78 1014.0
20260507023103 45 0 0.0 0.0 0.00 0.54 0.38 78 1014.4
20260507023002 46 0 0.0 0.0 0.00 0.55 0.38 78 1014.0
20260507022802 46 0 0.0 0.0 0.00 0.55 0.38 78 1014.2
20260507022602 46 0 0.0 0.0 0.00 0.56 0.38 77 1014.2
20260507022402 46 0 0.0 0.0 0.00 0.57 0.38 77 1014.2
20260507022202 46 0 0.0 0.0 0.00 0.57 0.38 76 1014.3
20260507022123 46 0 0.0 0.0 0.00 0.57 0.38 76 1014.1
20260507021902 46 0 0.0 0.0 0.00 0.58 0.38 76 1014.3
20260507021602 46 0 0.0 0.0 0.00 0.59 0.38 77 1014.1
20260507021102 46 0 0.0 0.0 0.00 0.60 0.38 79 1014.2
20260507020602 46 0 0.0 0.0 0.00 0.61 0.38 80 1014.2
20260507020423 46 0 0.0 0.0 0.00 0.61 0.38 79 1014.1
20260507015902 45 0 0.0 0.0 0.00 0.63 0.38 78 1014.2
20260507015202 46 0 0.0 0.0 0.00 0.65 0.38 78 1014.1
20260507015102 46 0 0.0 0.0 0.00 0.65 0.38 78 1014.0
20260507014602 46 0 0.0 0.0 0.00 0.67 0.38 78 1014.0
20260507014502 46 0 0.0 0.0 0.00 0.68 0.38 78 1013.8
20260507014402 46 0 0.0 0.0 0.00 0.68 0.38 78 1013.8
20260507014202 46 0 0.0 0.0 0.00 0.68 0.38 78 1013.6
20260507014102 46 0 0.0 0.0 0.00 0.69 0.38 78 1013.8
20260507014002 46 0 0.0 0.0 0.00 0.69 0.38 77 1013.6
20260507013702 46 0 0.0 0.0 0.00 0.70 0.38 77 1013.9
20260507013602 46 0 0.0 0.0 0.00 0.70 0.38 77 1013.8
20260507013502 46 0 0.0 0.0 0.00 0.71 0.38 76 1013.9
20260507013423 46 0 0.0 0.0 0.00 0.71 0.38 76 1013.8
20260507013323 46 0 0.0 0.0 0.00 0.71 0.38 76 1013.8
20260507013102 46 0 0.0 0.0 0.00 0.72 0.38 76 1013.9
20260507012802 46 0 0.0 0.0 0.00 0.72 0.38 76 1013.8
20260507012602 46 0 0.0 0.0 0.00 0.73 0.38 75 1014.0
20260507012402 46 0 0.0 0.0 0.00 0.73 0.38 75 1013.5
20260507012306 46 0 0.0 0.0 0.00 0.74 0.38 75 1013.6
20260507012102 46 0 0.0 0.0 0.00 0.75 0.38 74 1013.7
20260507011902 46 0 0.0 0.0 0.00 0.76 0.38 74 1013.6
20260507011602 46 0 0.0 0.0 0.00 0.76 0.38 74 1013.8
20260507011523 47 0 0.0 0.0 0.00 0.77 0.38 74 1013.8
20260507011123 47 0 0.0 0.0 0.00 0.78 0.38 73 1013.7
20260507010902 47 0 0.0 0.0 0.00 0.79 0.38 73 1013.7
20260507010602 47 0 0.0 0.0 0.00 0.79 0.38 72 1013.5
20260507010502 47 0 0.0 0.0 0.00 0.79 0.38 72 1013.7
20260507010402 47 0 0.0 0.0 0.00 0.79 0.38 72 1013.7
20260507010202 47 0 0.0 0.0 0.00 0.80 0.38 72 1013.7
20260507010123 47 0 0.0 0.0 0.00 0.80 0.38 72 1013.6
20260507005802 47 0 0.0 0.0 0.00 0.81 0.38 72 1013.7
20260507005402 47 0 0.0 0.0 0.00 0.82 0.38 71 1013.7
20260507005224 47 0 0.0 0.0 0.00 0.83 0.38 70 1013.6
20260507005102 47 0 0.0 0.0 0.00 0.83 0.38 70 1013.6
20260507004902 47 0 0.0 0.0 0.00 0.84 0.38 69 1013.7
20260507004402 47 0 0.0 0.0 0.00 0.84 0.38 68 1013.6
20260507004102 47 0 0.0 0.0 0.00 0.84 0.38 68 1013.7
20260507003502 47 0 0.0 0.0 0.00 0.85 0.38 68 1013.7
20260507003402 47 0 0.0 0.0 0.00 0.85 0.38 68 1013.5
20260507003103 47 0 0.0 0.0 0.00 0.85 0.38 68 1013.5
20260507002902 47 0 0.0 0.0 0.00 0.85 0.38 67 1013.6
20260507002702 47 0 0.0 0.0 0.00 0.85 0.38 67 1013.7
20260507002602 47 0 0.0 0.0 0.00 0.85 0.38 67 1013.8
20260507002502 47 0 0.0 0.0 0.00 0.85 0.38 67 1013.7
20260507002402 48 0 0.0 0.0 0.00 0.85 0.38 67 1013.5
20260507002202 48 0 0.0 0.0 0.00 0.85 0.38 68 1013.7
20260507002102 48 0 0.0 0.0 0.00 0.85 0.38 67 1013.5
20260507001524 48 0 0.0 0.0 0.00 0.85 0.38 68 1013.6
20260507001302 48 0 0.0 0.0 0.00 0.85 0.38 67 1013.6
20260507001103 48 0 0.0 0.0 0.00 0.85 0.38 66 1013.6
20260507001002 48 0 0.0 0.0 0.00 0.85 0.38 66 1013.6
20260507000902 48 0 0.0 0.0 0.00 0.85 0.38 66 1013.7
20260507000803 48 0 0.0 0.0 0.00 0.85 0.38 67 1013.5
20260507000702 48 0 0.0 0.0 0.00 0.85 0.38 66 1013.5
20260507000123 48 0 0.0 0.0 0.00 0.85 0.38 66 1013.5
20260507000003 48 0 0.0 0.0 0.00 0.85 0.38 65 1013.7
20260506235802 48 0 0.0 0.0 0.00 0.85 0.38 65 1013.8
20260506235602 48 0 0.0 0.0 0.00 0.86 0.38 65 1013.6
20260506235402 48 0 0.0 0.0 0.00 0.86 0.38 64 1013.7
20260506235102 48 121 0.0 2.0 0.00 0.86 0.38 64 1013.8
20260506235003 48 113 0.0 2.0 0.00 0.87 0.38 64 1013.6
20260506234905 48 113 0.0 2.0 0.00 0.87 0.38 63 1013.5
20260506234802 48 113 0.0 2.0 0.00 0.87 0.38 64 1013.6
20260506234602 48 110 0.0 2.0 0.00 0.87 0.38 63 1013.7
20260506234523 48 109 0.0 2.0 0.00 0.88 0.38 62 1013.6
20260506234402 48 109 0.0 2.0 0.00 0.88 0.38 62 1013.7
20260506234302 48 116 0.0 2.0 0.00 0.88 0.38 62 1013.9
20260506234124 48 93 0.0 1.0 0.00 0.89 0.38 63 1013.6
20260506233924 49 96 0.0 1.0 0.00 0.89 0.38 63 1013.7
20260506233802 49 97 0.0 1.0 0.00 0.89 0.38 63 1013.7
20260506233723 49 90 0.0 2.0 0.00 0.89 0.38 63 1013.6
20260506233624 49 83 0.0 3.0 0.00 0.90 0.38 63 1013.6
20260506233503 49 58 0.0 4.0 0.00 0.90 0.38 62 1013.7
20260506233402 49 57 1.0 4.0 0.00 0.90 0.38 62 1013.6
20260506233302 49 52 1.0 4.0 0.00 0.90 0.38 62 1013.6
20260506233202 49 54 1.0 4.0 0.00 0.90 0.38 61 1013.4
20260506233002 49 57 1.0 4.0 0.00 0.91 0.38 61 1013.6
20260506232903 49 58 1.0 4.0 0.00 0.91 0.38 61 1013.4
20260506232802 49 59 1.0 4.0 0.00 0.91 0.38 61 1013.4
20260506232602 49 52 1.0 4.0 0.00 0.92 0.38 61 1013.5
20260506232306 49 65 1.0 3.0 0.00 0.93 0.38 62 1013.6
20260506232102 49 58 2.0 4.0 0.00 0.93 0.38 62 1013.3
20260506231802 49 51 1.0 4.0 0.00 0.94 0.38 61 1013.4
20260506231602 49 60 1.0 4.0 0.00 0.94 0.38 62 1013.2
20260506231403 49 60 1.0 4.0 0.00 0.95 0.38 62 1013.4
20260506231324 49 60 1.0 4.0 0.00 0.95 0.38 62 1013.4
20260506231103 49 55 1.0 3.0 0.00 0.96 0.38 62 1013.4
20260506230624 49 67 1.0 3.0 0.00 1.01 0.38 62 1013.1
20260506230402 49 52 1.0 6.0 0.00 1.04 0.38 63 1013.3
20260506230303 49 46 2.0 6.0 0.00 1.05 0.38 61 1013.4
20260506225802 49 49 2.0 6.0 0.00 1.07 0.38 61 1013.5
20260506225603 49 55 2.0 6.0 0.00 1.08 0.38 61 1013.4
20260506225502 49 58 2.0 6.0 0.00 1.08 0.38 60 1013.4
20260506225324 49 64 2.0 4.0 0.00 1.08 0.38 61 1013.4
20260506225224 49 53 2.0 3.0 0.00 1.09 0.38 62 1013.4
20260506225002 49 41 2.0 4.0 0.00 1.09 0.38 62 1013.5
20260506224902 49 37 2.0 4.0 0.00 1.09 0.38 63 1013.2
20260506224702 49 40 2.0 4.0 0.00 1.09 0.38 62 1013.4
20260506224602 49 38 2.0 4.0 0.00 1.09 0.38 63 1013.5
20260506224303 49 50 2.0 6.0 0.00 1.10 0.38 61 1013.4
20260506224024 49 52 2.0 6.0 0.00 1.10 0.38 61 1013.2
20260506223802 49 62 2.0 6.0 0.00 1.10 0.38 63 1013.3
20260506223602 49 58 2.0 6.0 0.00 1.10 0.38 63 1013.3
20260506223524 49 55 2.0 6.0 0.00 1.10 0.38 63 1013.4
20260506223424 49 51 2.0 6.0 0.00 1.10 0.38 62 1013.2
20260506223202 49 53 2.0 4.0 0.00 1.10 0.38 61 1013.3
20260506223102 50 64 1.0 4.0 0.00 1.10 0.38 62 1013.5
20260506223003 50 65 1.0 3.0 0.00 1.10 0.38 64 1013.2
20260506222803 50 60 1.0 3.0 0.00 1.11 0.38 63 1013.2
20260506222602 50 79 1.0 3.0 0.00 1.11 0.38 63 1013.1
20260506222102 50 48 2.0 6.0 0.00 1.12 0.38 62 1013.1
20260506221903 50 55 2.0 6.0 0.00 1.12 0.38 61 1013.1
20260506221603 50 47 2.0 6.0 0.00 1.12 0.38 62 1013.0
20260506221502 50 47 2.0 6.0 0.00 1.12 0.38 62 1013.0
20260506221302 50 53 2.0 7.0 0.00 1.13 0.38 62 1013.0
20260506221202 50 51 2.0 7.0 0.00 1.13 0.38 61 1012.9
20260506220902 50 58 2.0 7.0 0.00 1.13 0.38 62 1013.0
20260506220623 50 56 2.0 7.0 0.00 1.13 0.38 61 1013.0
20260506220302 50 72 1.0 6.0 0.00 1.13 0.38 62 1013.0
20260506220123 50 80 1.0 6.0 0.00 1.13 0.38 62 1012.9
20260506215603 50 85 1.0 3.0 0.00 1.13 0.38 62 1012.9
20260506215502 50 82 1.0 3.0 0.00 1.14 0.38 61 1012.8
20260506215402 50 86 1.0 3.0 0.00 1.14 0.38 61 1012.9
20260506215305 50 84 1.0 3.0 0.00 1.15 0.38 60 1013.0
20260506215202 51 78 1.0 4.0 0.00 1.15 0.38 61 1013.0
20260506214902 50 68 1.0 4.0 0.00 1.15 0.38 61 1012.9
20260506214802 50 65 2.0 4.0 0.00 1.15 0.38 59 1012.8
20260506214602 51 68 2.0 4.0 0.00 1.16 0.38 61 1012.8
20260506214103 51 65 2.0 4.0 0.00 1.16 0.38 60 1012.5
20260506214002 51 66 2.0 4.0 0.00 1.16 0.38 60 1012.5
20260506213802 51 67 1.0 4.0 0.00 1.17 0.38 62 1012.6
20260506213703 51 64 1.0 4.0 0.00 1.17 0.38 62 1012.6
20260506213602 51 66 1.0 4.0 0.00 1.17 0.38 61 1012.5
20260506213502 51 64 2.0 4.0 0.00 1.17 0.38 60 1012.4
20260506213402 51 66 2.0 4.0 0.00 1.18 0.38 59 1012.6
20260506213302 51 67 2.0 4.0 0.00 1.18 0.38 60 1012.6
20260506213102 51 61 2.0 4.0 0.00 1.18 0.38 62 1012.2
20260506212902 51 59 2.0 4.0 0.00 1.18 0.38 61 1012.5
20260506212802 51 58 2.0 4.0 0.00 1.19 0.38 60 1012.6
20260506212602 51 41 2.0 6.0 0.00 1.20 0.38 60 1012.5
20260506212423 51 49 2.0 6.0 0.00 1.20 0.38 60 1012.4
20260506212203 51 48 2.0 6.0 0.00 1.20 0.38 60 1012.5
20260506212102 51 53 2.0 6.0 0.00 1.20 0.38 62 1012.7
20260506212003 51 54 2.0 6.0 0.00 1.20 0.38 61 1012.5
20260506211802 51 53 2.0 6.0 0.00 1.21 0.38 58 1012.4
20260506211623 52 67 2.0 6.0 0.00 1.21 0.38 57 1012.3
20260506211403 52 51 2.0 6.0 0.00 1.24 0.38 58 1012.4
20260506211324 52 52 2.0 6.0 0.00 1.28 0.38 60 1012.6
20260506211102 51 48 2.0 7.0 0.00 1.31 0.38 57 1012.4
20260506211002 51 48 2.0 7.0 0.00 1.31 0.38 58 1012.5
20260506210902 51 37 2.0 7.0 0.00 1.32 0.38 58 1012.6
20260506210724 51 32 3.0 7.0 0.00 1.35 0.38 58 1012.5
20260506210402 52 30 2.0 7.0 0.00 1.37 0.38 57 1012.3
20260506210224 51 27 2.0 7.0 0.00 1.38 0.38 59 1012.5
20260506210002 52 24 2.0 7.0 0.00 1.38 0.38 57 1012.2
20260506205902 52 38 2.0 6.0 0.00 1.38 0.38 57 1012.3
20260506205802 52 34 2.0 7.0 0.00 1.38 0.38 58 1012.5
20260506205502 52 39 2.0 7.0 0.00 1.38 0.38 57 1012.5
20260506205305 52 32 2.0 7.0 0.00 1.38 0.38 56 1012.5
20260506205202 52 39 2.0 7.0 0.00 1.38 0.38 57 1012.4
20260506205102 52 42 2.0 7.0 0.00 1.38 0.38 59 1012.7
20260506204923 51 34 2.0 7.0 0.00 1.38 0.38 57 1012.4
20260506204724 52 36 2.0 6.0 0.00 1.38 0.38 57 1012.6
20260506204124 52 355 3.0 6.0 0.00 1.39 0.38 57 1012.5
20260506203923 52 318 3.0 8.0 0.00 1.39 0.38 56 1012.7
20260506203802 52 306 3.0 8.0 0.00 1.40 0.38 56 1012.6
20260506203702 52 301 3.0 8.0 0.00 1.40 0.38 56 1012.4
20260506203602 52 303 3.0 8.0 0.00 1.40 0.38 56 1012.5
20260506203503 52 305 3.0 8.0 0.00 1.40 0.38 55 1012.6
20260506203402 52 315 3.0 8.0 0.00 1.41 0.38 56 1012.4
20260506202802 52 8 3.0 8.0 0.00 1.42 0.38 55 1012.2
20260506202124 52 354 3.0 7.0 0.00 1.43 0.38 58 1012.3
20260506201702 52 5 3.0 7.0 0.00 1.43 0.38 54 1012.6
20260506201503 52 23 3.0 7.0 0.00 1.43 0.38 53 1012.6
20260506201303 52 27 3.0 7.0 0.00 1.43 0.38 52 1012.6
20260506201124 52 39 3.0 6.0 0.00 1.43 0.38 53 1012.5
20260506201002 52 38 2.0 6.0 0.00 1.43 0.38 54 1012.6
20260506200802 52 30 3.0 9.0 0.00 1.43 0.38 55 1012.6
20260506200602 52 17 3.0 11.0 0.00 1.43 0.38 53 1012.5
20260506200503 52 17 3.0 11.0 0.00 1.43 0.38 53 1012.6
20260506200403 52 21 3.0 11.0 0.00 1.43 0.38 53 1012.4
20260506200324 52 17 3.0 11.0 0.00 1.43 0.38 53 1012.5
20260506200003 52 15 4.0 11.0 0.00 1.43 0.38 54 1012.6
20260506195902 52 15 4.0 11.0 0.00 1.43 0.38 53 1012.5
20260506195823 52 18 3.0 11.0 0.00 1.43 0.38 53 1012.7
20260506195602 52 32 3.0 8.0 0.00 1.43 0.38 55 1012.6
20260506195502 52 42 3.0 8.0 0.00 1.43 0.38 56 1012.5
20260506195305 52 33 3.0 8.0 0.00 1.43 0.38 54 1012.6
20260506195202 52 19 3.0 7.0 0.00 1.43 0.38 53 1012.7
20260506195102 53 28 3.0 8.0 0.00 1.43 0.38 55 1012.5
20260506195002 53 13 3.0 8.0 0.00 1.43 0.38 52 1012.5
20260506194702 53 18 3.0 8.0 0.00 1.44 0.38 54 1012.4
20260506194603 52 18 3.0 8.0 0.00 1.44 0.38 56 1012.4
20260506194403 52 347 4.0 11.0 0.00 1.44 0.38 54 1012.4
20260506194202 52 344 4.0 11.0 0.00 1.44 0.38 52 1012.4
20260506194103 53 335 3.0 11.0 0.00 1.44 0.38 50 1012.4
20260506193902 53 323 3.0 11.0 0.00 1.44 0.38 50 1012.5
20260506193702 53 286 3.0 11.0 0.00 1.44 0.38 49 1012.5
20260506193123 53 273 4.0 11.0 0.00 1.44 0.38 51 1012.6
20260506192702 53 286 4.0 11.0 0.00 1.44 0.38 50 1012.5
20260506192602 53 291 4.0 11.0 0.00 1.44 0.38 51 1012.6
20260506192402 53 296 4.0 11.0 0.00 1.44 0.38 52 1012.6
20260506192102 54 324 4.0 11.0 0.00 1.44 0.38 52 1012.6
20260506191803 53 316 3.0 11.0 0.00 1.44 0.38 50 1012.6
20260506191702 53 312 3.0 11.0 0.00 1.44 0.38 52 1012.7
20260506191603 54 313 3.0 11.0 0.00 1.44 0.38 54 1012.5
20260506191103 55 347 3.0 8.0 0.00 1.44 0.38 51 1012.7
20260506190903 55 18 3.0 8.0 0.00 1.45 0.38 55 1012.5
20260506190703 54 2 4.0 10.0 0.00 1.45 0.38 55 1012.4
20260506190502 54 352 4.0 11.0 0.00 1.45 0.38 51 1012.5
20260506190302 54 349 4.0 11.0 0.00 1.45 0.38 55 1012.6
20260506185902 54 353 4.0 11.0 0.00 1.45 0.38 54 1012.6
20260506185602 53 358 3.0 9.0 0.00 1.45 0.38 58 1012.7
20260506185306 54 345 3.0 9.0 0.00 1.45 0.38 58 1012.6
20260506185202 54 331 3.0 8.0 0.00 1.45 0.38 58 1012.6
20260506184902 53 349 4.0 7.0 0.00 1.45 0.38 61 1012.6
20260506184823 53 352 4.0 7.0 0.00 1.45 0.38 60 1012.7
20260506184523 52 7 4.0 9.0 0.00 1.45 0.38 62 1012.7
20260506184403 52 9 4.0 9.0 0.00 1.45 0.38 62 1012.6
20260506184303 52 5 5.0 9.0 0.00 1.45 0.38 60 1012.7